Location: Unspecified
(0.0000°N, 0.0000°E)
Time: 03:31:12
(UTC+00:00)

Vanguard 1 - Pass Details

Date: 18 December 2023
Orbit: 653 x 3826 km, 34.3° (Epoch: 22 February)

Event Time Altitude Azimuth Distance (km) Brightness Sun altitude
Rises 01:57:26 0° 273° (W) 7,939 - -52.4°
Reaches altitude 10° 02:05:03 10° 261° (W) 6,712 - -51.0°
Exits shadow 02:15:32 22° 234° (SW) 5,171 13.5 -48.9°
Maximum altitude 02:20:12 24° 215° (SW) 4,689 13.4 -48.0°
Drops below altitude 10° 02:31:07 10° 166° (SSE) 4,717 13.9 -45.7°
Sets 02:35:16 0° 151° (SSE) 5,237 14.4 -44.9°
